Time,TemperatureF,DewpointF,PressureIn,WindDirection,WindDirectionDegrees,WindSpeedMPH,WindSpeedGustMPH,Humidity,HourlyPrecipIn,Conditions,Clouds,dailyrainin,SoftwareType,DateUTC
2013-09-01 00:11:00,51.8,46.2,29.89,NW,315,0.0,-999.0,81,-99.99,,,0.00,Acu-Link.com,2013-09-01 07:11:00,
2013-09-01 00:26:00,51.8,46.2,29.89,WNW,292,0.0,-999.0,81,-99.99,,,0.00,Acu-Link.com,2013-09-01 07:26:00,
2013-09-01 00:41:00,50.0,44.7,29.88,NE,45,0.0,-999.0,82,-99.99,,,0.00,Acu-Link.com,2013-09-01 07:41:00,
2013-09-01 00:56:00,50.0,45.0,29.88,NE,45,0.0,-999.0,83,-99.99,,,0.00,Acu-Link.com,2013-09-01 07:56:00,
2013-09-01 01:12:00,50.0,45.4,29.88,ESE,112,0.0,-999.0,84,-99.99,,,0.00,Acu-Link.com,2013-09-01 08:12:00,
2013-09-01 01:27:00,50.0,45.7,29.87,ESE,112,0.0,-999.0,85,-99.99,,,0.00,Acu-Link.com,2013-09-01 08:27:00,
2013-09-01 01:42:00,50.0,46.0,29.87,East,90,0.0,-999.0,86,-99.99,,,0.00,Acu-Link.com,2013-09-01 08:42:00,
2013-09-01 01:57:00,48.2,44.5,29.87,East,90,0.0,-999.0,87,-99.99,,,0.00,Acu-Link.com,2013-09-01 08:57:00,
2013-09-01 02:12:00,48.2,44.8,29.87,East,90,0.0,-999.0,88,-99.99,,,0.00,Acu-Link.com,2013-09-01 09:12:00,
2013-09-01 02:27:00,46.4,43.0,29.87,East,90,0.0,-999.0,88,-99.99,,,0.00,Acu-Link.com,2013-09-01 09:27:00,
2013-09-01 02:42:00,46.4,43.3,29.87,East,90,0.0,-999.0,89,-99.99,,,0.00,Acu-Link.com,2013-09-01 09:42:00,
2013-09-01 02:58:00,46.4,43.0,29.87,ENE,67,0.0,-999.0,88,-99.99,,,0.00,Acu-Link.com,2013-09-01 09:58:00,
2013-09-01 03:13:00,46.4,43.3,29.87,East,90,0.0,-999.0,89,-99.99,,,0.00,Acu-Link.com,2013-09-01 10:13:00,
2013-09-01 03:28:00,44.6,43.8,29.87,East,90,0.0,-999.0,97,-99.99,,,0.00,Acu-Link.com,2013-09-01 10:28:00,
2013-09-01 03:43:00,44.6,44.1,29.86,South,180,0.0,-999.0,98,-99.99,,,0.00,Acu-Link.com,2013-09-01 10:43:00,
2013-09-01 03:58:00,44.6,44.1,29.86,SE,135,0.0,-999.0,98,-99.99,,,0.00,Acu-Link.com,2013-09-01 10:58:00,
2013-09-01 04:13:00,44.6,44.1,29.86,ESE,112,2.0,-999.0,98,-99.99,,,0.00,Acu-Link.com,2013-09-01 11:13:00,
2013-09-01 04:28:00,44.6,44.1,29.86,ESE,112,0.0,-999.0,98,-99.99,,,0.00,Acu-Link.com,2013-09-01 11:28:00,
2013-09-01 04:43:00,44.6,44.1,29.86,NE,45,0.0,-999.0,98,-99.99,,,0.00,Acu-Link.com,2013-09-01 11:43:00,
2013-09-01 04:58:00,44.6,44.1,29.85,East,90,0.0,-999.0,98,-99.99,,,0.00,Acu-Link.com,2013-09-01 11:58:00,
2013-09-01 05:13:00,44.6,44.1,29.85,ESE,112,0.0,-999.0,98,-99.99,,,0.00,Acu-Link.com,2013-09-01 12:13:00,
2013-09-01 05:28:00,44.6,44.1,29.85,SSW,202,0.0,-999.0,98,-99.99,,,0.00,Acu-Link.com,2013-09-01 12:28:00,
2013-09-01 05:44:00,44.6,44.1,29.85,ENE,67,0.0,-999.0,98,-99.99,,,0.00,Acu-Link.com,2013-09-01 12:44:00,
2013-09-01 05:59:00,44.6,44.1,29.85,ENE,67,0.0,-999.0,98,-99.99,,,0.00,Acu-Link.com,2013-09-01 12:59:00,
2013-09-01 06:14:00,44.6,44.1,29.84,ENE,67,0.0,-999.0,98,-99.99,,,0.00,Acu-Link.com,2013-09-01 13:14:00,
2013-09-01 06:29:00,44.6,44.1,29.84,ENE,67,0.0,-999.0,98,-99.99,,,0.00,Acu-Link.com,2013-09-01 13:29:00,
2013-09-01 06:44:00,44.6,44.1,29.85,ESE,112,0.0,-999.0,98,-99.99,,,0.00,Acu-Link.com,2013-09-01 13:44:00,
2013-09-01 06:59:00,44.6,44.1,29.84,ESE,112,0.0,-999.0,98,-99.99,,,0.00,Acu-Link.com,2013-09-01 13:59:00,
2013-09-01 07:14:00,44.6,44.1,29.84,SSE,157,0.0,-999.0,98,-99.99,,,0.00,Acu-Link.com,2013-09-01 14:14:00,
2013-09-01 07:29:00,44.6,44.1,29.85,NNE,22,0.0,-999.0,98,-99.99,,,0.00,Acu-Link.com,2013-09-01 14:29:00,
2013-09-01 07:45:00,44.6,44.1,29.84,West,270,0.0,-999.0,98,-99.99,,,0.00,Acu-Link.com,2013-09-01 14:45:00,
2013-09-01 08:00:00,46.4,45.9,29.84,ENE,67,0.0,-999.0,98,-99.99,,,0.00,Acu-Link.com,2013-09-01 15:00:00,
2013-09-01 08:15:00,48.2,47.7,29.84,South,180,0.0,-999.0,98,-99.99,,,0.00,Acu-Link.com,2013-09-01 15:15:00,
2013-09-01 08:30:00,50.0,49.5,29.84,SSE,157,0.0,-999.0,98,-99.99,,,0.00,Acu-Link.com,2013-09-01 15:30:00,
2013-09-01 08:45:00,51.8,51.3,29.85,ENE,67,0.0,-999.0,98,-99.99,,,0.00,Acu-Link.com,2013-09-01 15:45:00,
2013-09-01 09:00:00,55.4,50.6,29.84,SSE,157,0.0,-999.0,84,-99.99,,,0.00,Acu-Link.com,2013-09-01 16:00:00,
2013-09-01 09:15:00,59.0,50.4,29.84,East,90,2.7,-999.0,73,-99.99,,,0.00,Acu-Link.com,2013-09-01 16:15:00,
2013-09-01 09:30:00,60.8,51.0,29.83,ESE,112,0.0,-999.0,70,-99.99,,,0.00,Acu-Link.com,2013-09-01 16:30:00,
2013-09-01 09:45:00,62.6,50.7,29.83,ENE,67,1.6,-999.0,65,-99.99,,,0.00,Acu-Link.com,2013-09-01 16:45:00,
2013-09-01 10:01:00,64.4,50.2,29.83,SSE,157,1.1,-999.0,60,-99.99,,,0.00,Acu-Link.com,2013-09-01 17:01:00,
2013-09-01 10:16:00,68.0,51.2,29.83,ENE,67,3.6,-999.0,55,-99.99,,,0.00,Acu-Link.com,2013-09-01 17:16:00,
2013-09-01 10:31:00,69.8,50.8,29.82,ENE,67,3.1,-999.0,51,-99.99,,,0.00,Acu-Link.com,2013-09-01 17:31:00,
2013-09-01 10:46:00,71.6,50.9,29.82,NE,45,2.0,-999.0,48,-99.99,,,0.00,Acu-Link.com,2013-09-01 17:46:00,
2013-09-01 11:01:00,73.4,50.1,29.81,ESE,112,3.1,-999.0,44,-99.99,,,0.00,Acu-Link.com,2013-09-01 18:01:00,
2013-09-01 11:16:00,77.0,52.1,29.81,ENE,67,2.0,-999.0,42,-99.99,,,0.00,Acu-Link.com,2013-09-01 18:16:00,
2013-09-01 11:32:00,77.0,51.5,29.81,South,180,2.7,-999.0,41,-99.99,,,0.00,Acu-Link.com,2013-09-01 18:32:00,
2013-09-01 11:47:00,78.8,51.7,29.80,SW,225,2.0,-999.0,39,-99.99,,,0.00,Acu-Link.com,2013-09-01 18:47:00,
2013-09-01 12:02:00,78.8,51.7,29.80,SSW,202,2.7,-999.0,39,-99.99,,,0.00,Acu-Link.com,2013-09-01 19:02:00,
2013-09-01 12:17:00,77.0,50.1,29.79,ESE,112,2.7,-999.0,39,-99.99,,,0.00,Acu-Link.com,2013-09-01 19:17:00,
2013-09-01 12:32:00,77.0,48.7,29.80,ENE,67,3.1,-999.0,37,-99.99,,,0.00,Acu-Link.com,2013-09-01 19:32:00,
2013-09-01 12:47:00,78.8,48.8,29.80,South,180,2.0,-999.0,35,-99.99,,,0.00,Acu-Link.com,2013-09-01 19:47:00,
2013-09-01 13:03:00,80.6,48.8,29.79,SSE,157,2.7,-999.0,33,-99.99,,,0.00,Acu-Link.com,2013-09-01 20:03:00,
2013-09-01 13:18:00,80.6,48.0,29.79,West,270,1.6,-999.0,32,-99.99,,,0.00,Acu-Link.com,2013-09-01 20:18:00,
2013-09-01 13:33:00,80.6,47.1,29.79,SSE,157,2.7,-999.0,31,-99.99,,,0.00,Acu-Link.com,2013-09-01 20:33:00,
2013-09-01 13:48:00,80.6,43.5,29.78,NW,315,3.1,-999.0,27,-99.99,,,0.00,Acu-Link.com,2013-09-01 20:48:00,
2013-09-01 14:03:00,82.4,46.0,29.78,NNE,22,3.6,-999.0,28,-99.99,,,0.00,Acu-Link.com,2013-09-01 21:03:00,
2013-09-01 14:18:00,80.6,46.3,29.77,SSE,157,3.6,-999.0,30,-99.99,,,0.00,Acu-Link.com,2013-09-01 21:18:00,
2013-09-01 14:33:00,82.4,46.9,29.77,WSW,247,3.1,-999.0,29,-99.99,,,0.00,Acu-Link.com,2013-09-01 21:33:00,
2013-09-01 14:49:00,82.4,38.5,29.77,SW,225,4.0,-999.0,21,-99.99,,,0.00,Acu-Link.com,2013-09-01 21:49:00,
2013-09-01 15:04:00,82.4,37.3,29.76,West,270,0.0,-999.0,20,-99.99,,,0.00,Acu-Link.com,2013-09-01 22:04:00,
2013-09-01 15:19:00,82.4,39.7,29.75,WSW,247,1.6,-999.0,22,-99.99,,,0.00,Acu-Link.com,2013-09-01 22:19:00,
2013-09-01 15:34:00,82.4,37.3,29.75,North,0,2.0,-999.0,20,-99.99,,,0.00,Acu-Link.com,2013-09-01 22:34:00,
2013-09-01 15:49:00,84.2,37.5,29.75,NNW,337,2.0,-999.0,19,-99.99,,,0.00,Acu-Link.com,2013-09-01 22:49:00,
2013-09-01 16:04:00,84.2,41.2,29.75,SSW,202,2.0,-999.0,22,-99.99,,,0.00,Acu-Link.com,2013-09-01 23:04:00,
2013-09-01 16:19:00,82.4,39.7,29.74,South,180,1.6,-999.0,22,-99.99,,,0.00,Acu-Link.com,2013-09-01 23:19:00,
2013-09-01 16:34:00,82.4,36.0,29.73,West,270,1.6,-999.0,19,-99.99,,,0.00,Acu-Link.com,2013-09-01 23:34:00,
2013-09-01 16:49:00,82.4,34.6,29.74,ESE,112,3.6,-999.0,18,-99.99,,,0.00,Acu-Link.com,2013-09-01 23:49:00,
2013-09-01 17:04:00,82.4,36.0,29.73,West,270,2.0,-999.0,19,-99.99,,,0.00,Acu-Link.com,2013-09-02 00:04:00,
2013-09-01 17:19:00,82.4,36.0,29.73,South,180,1.6,-999.0,19,-99.99,,,0.00,Acu-Link.com,2013-09-02 00:19:00,
2013-09-01 17:34:00,82.4,34.6,29.73,North,0,1.1,-999.0,18,-99.99,,,0.00,Acu-Link.com,2013-09-02 00:34:00,
2013-09-01 17:49:00,82.4,34.6,29.73,West,270,0.0,-999.0,18,-99.99,,,0.00,Acu-Link.com,2013-09-02 00:49:00,
2013-09-01 18:05:00,82.4,36.0,29.72,NNE,22,0.0,-999.0,19,-99.99,,,0.00,Acu-Link.com,2013-09-02 01:05:00,
2013-09-01 18:20:00,80.6,38.2,29.72,WSW,247,0.0,-999.0,22,-99.99,,,0.00,Acu-Link.com,2013-09-02 01:20:00,
2013-09-01 18:35:00,78.8,37.9,29.72,NNW,337,0.0,-999.0,23,-99.99,,,0.00,Acu-Link.com,2013-09-02 01:35:00,
2013-09-01 18:51:00,77.0,39.5,29.73,NNE,22,0.0,-999.0,26,-99.99,,,0.00,Acu-Link.com,2013-09-02 01:51:00,
2013-09-01 19:06:00,75.2,38.9,29.72,NNE,22,0.0,-999.0,27,-99.99,,,0.00,Acu-Link.com,2013-09-02 02:06:00,
2013-09-01 19:21:00,73.4,39.2,29.73,NNE,22,0.0,-999.0,29,-99.99,,,0.00,Acu-Link.com,2013-09-02 02:21:00,
2013-09-01 19:36:00,71.6,38.5,29.73,NNE,22,0.0,-999.0,30,-99.99,,,0.00,Acu-Link.com,2013-09-02 02:36:00,
2013-09-01 19:51:00,71.6,41.7,29.73,NE,45,0.0,-999.0,34,-99.99,,,0.00,Acu-Link.com,2013-09-02 02:51:00,
2013-09-01 20:06:00,69.8,39.4,29.73,ENE,67,0.0,-999.0,33,-99.99,,,0.00,Acu-Link.com,2013-09-02 03:06:00,
2013-09-01 20:21:00,69.8,41.6,29.73,NNW,337,0.0,-999.0,36,-99.99,,,0.00,Acu-Link.com,2013-09-02 03:21:00,
2013-09-01 20:36:00,69.8,45.0,29.74,NW,315,0.0,-999.0,41,-99.99,,,0.00,Acu-Link.com,2013-09-02 03:36:00,
2013-09-01 20:51:00,69.8,47.5,29.74,SSE,157,0.0,-999.0,45,-99.99,,,0.00,Acu-Link.com,2013-09-02 03:51:00,
2013-09-01 21:07:00,69.8,47.5,29.74,NE,45,0.0,-999.0,45,-99.99,,,0.00,Acu-Link.com,2013-09-02 04:07:00,
2013-09-01 21:22:00,68.0,47.0,29.74,South,180,0.0,-999.0,47,-99.99,,,0.00,Acu-Link.com,2013-09-02 04:22:00,
2013-09-01 21:37:00,68.0,48.7,29.74,ENE,67,0.0,-999.0,50,-99.99,,,0.00,Acu-Link.com,2013-09-02 04:37:00,
2013-09-01 21:52:00,66.2,45.9,29.75,NNE,22,0.0,-999.0,48,-99.99,,,0.00,Acu-Link.com,2013-09-02 04:52:00,
2013-09-01 22:07:00,64.4,44.8,29.74,NE,45,0.0,-999.0,49,-99.99,,,0.00,Acu-Link.com,2013-09-02 05:07:00,
2013-09-01 22:22:00,64.4,46.9,29.74,East,90,0.0,-999.0,53,-99.99,,,0.00,Acu-Link.com,2013-09-02 05:22:00,
2013-09-01 22:37:00,64.4,49.8,29.75,South,180,3.1,-999.0,59,-99.99,,,0.00,Acu-Link.com,2013-09-02 05:37:00,
2013-09-01 22:52:00,59.0,58.4,29.79,ENE,67,1.6,-999.0,98,-99.99,,,0.25,Acu-Link.com,2013-09-02 05:52:00,
2013-09-01 23:07:00,59.0,58.4,29.77,South,180,2.0,-999.0,98,-99.99,,,0.37,Acu-Link.com,2013-09-02 06:07:00,
2013-09-01 23:22:00,59.0,58.4,29.77,NE,45,0.0,-999.0,98,-99.99,,,0.37,Acu-Link.com,2013-09-02 06:22:00,
2013-09-01 23:37:00,59.0,58.4,29.78,East,90,0.0,-999.0,98,-99.99,,,0.37,Acu-Link.com,2013-09-02 06:37:00,
2013-09-01 23:52:00,59.0,58.4,29.78,North,0,0.0,-999.0,98,-99.99,,,0.37,Acu-Link.com,2013-09-02 06:52:00,